Find AMC 9

NORAD ID: 27820 Int'l Des: 2003-024 Owner: AMCS Country: US operational
HEOCIRCULAR

Live Position

Loading 3D Globe...

About AMC 9

Description loading...

Upcoming Passes

Passes for default location (London). Set your location on the main map for personalized predictions.

Altitude History

Loading altitude history...

Two-Line Element Set

1 27820U 03024A 26110.38105351 -.00000052 00000-0 00000+0 0 9991
2 27820 7.7774 66.3843 0018051 343.7572 31.2657 0.99029076 83422
Epoch: Apr 20, 2026 • Age: 15 hours

Current Status

Altitude 36153.9 km
Velocity 3.06 km/s
Sub-Earth Point -6.90°S, 92.48°E
Launch Date Jun 6, 2003
Age 22.8 years
Type other

Technical Details

Classification Payload
Mass 4000.00 kg
Dry Mass 1500.00 kg
Total Mass 4000.00 kg
Length 5.50 m
Diameter 2.50 m
Span 38.00 m
Shape Box + 2 Pan
Manufacturer ALC
Bus Type Spacebus 3000B3
Phase Status In Orbit
Owner/State AMCS/US

Most Searched